Airfield :
LOGIN :

Register | Disclaimer

   EN    FR    IT 

 










Legend :    VFR   Marginal VFR   IFR   Intensive IFR   Very Intensive IFR
Visi :
Ceiling :
>= 8 km
>= 3000ft
5 to 8 km
1000 to 3000 ft
1500m to 5 km
500 to 1000 ft
800 to 1500m
200 to 500 ft
< 800m
< 200 ft
Symbols :   Thunderstorms  Fog  Heavy snow  Heavy precipitations  Wind > 20 kt
SIGMETs :     Misc.  Thunderstorms  Icing  Turbulence  Mountain Waves  Volcanic Ashes







- Airport Elevation : 36 ft
- IATA code : LTQ
- Download approach charts


LFAT - Le Touquet

CURRENT METAR :
  • 210430Z AUTO 01003KT CAVOK 02/01 Q1014

EXPIRED METARs :
  • 210400Z AUTO 00000KT 9999 SCT014 OVC120 03/02 Q1014
  • 210330Z AUTO 01003KT 340V050 9999 BKN014 BKN140 03/02 Q1014
  • 210300Z AUTO 01003KT 330V050 9999 SCT014 02/01 Q1013
  • 210230Z AUTO 36005KT 9999 BKN016 BKN160 OVC190 03/02 Q1013
  • 210200Z AUTO 36008KT 9999 BKN016 OVC190 04/03 Q1013

Expired Forecast.
ATIS : +33 3 21 06 62 84
No reported NOTAMs for that airfield.



MET'MAP, your aeronautical weather chart ! - Copyright ORBIFLY December 2007 - Disclaimer

ORBIFLY MET'MAP TEAM :

Programming & Development : Alexandra Zaïnal
Concept & Development : Baudouin d'Aumeries
Co-Development & Prog : Marc-Olivier Méhu
Technical & hardware support : Manuel Goepfert

Contact : metmap@orbifly.com




SOURCES & CREDITS :

   NOAA